Regional Weather Roundup
Issued by NWS

Home | Current Version | Previous Version | Text Only | Print | Product List | Glossary On
Versions: 1 2 3 4 5 6 7 8 9 10 11 12 13 14 15 16 17 18 19 20 21 22 23 24 25 26 27 28 29 30 31 32 33 34 35 36 37 38 39 40 41 42 43 44 45 46 47 48 49 50
000
ASUS43 KMPX 281801
RWRMN
WEATHER ROUNDUP FOR MINNESOTA
NATIONAL WEATHER SERVICE TWIN CITIES/CHANHASSEN MN
100 PM CDT TUE JUL 28 2015


NOTE: "FAIR" INDICATES FEW OR NO CLOUDS BELOW 12,000 FEET WITH NO
SIGNIFICANT WEATHER AND/OR OBSTRUCTIONS TO VISIBILITY. N/A MEANS
CURRENT SKY AND/OR WEATHER CONDITIONS ARE NOT AVAILABLE.

MNZ060>063-068>070-281900-
   Twin Cities Metro

CITY           SKY/WX    TMP DP  RH WIND       PRES   REMARKS
TWIN CITIES    CLOUDY    78  68  71 S15       29.83F
6HR MIN TEMP:  70; 6HR MAX TEMP:  78; 6HR PCP:  0.84;

ST PAUL        CLOUDY    79  70  74 S13G20    29.83S
CRYSTAL        CLOUDY    79  69  71 S10       29.82S
LAKEVILLE      CLOUDY    75  70  83 S9        29.84F
EDEN PRAIRIE   PTSUNNY   78  70  76 S12       29.82F
6HR MIN TEMP:  71; 6HR MAX TEMP:  78; 6HR PCP:  0.12;

SOUTH ST PAUL  CLOUDY    80  69  68 S10G18    29.83F
LAKE ELMO      FAIR      79  70  73 S20G26    29.85S
$$
MNZ001>005-007-008-013>017-022>024-027-028-281900-
   Northwest Minnesota

CITY           SKY/WX    TMP DP  RH WIND       PRES   REMARKS
BEMIDJI        CLOUDY    76  68  75 S10       29.69S
HALLOCK        MOSUNNY   77  64  65 SW21G28   29.56S
ROSEAU         PTSUNNY   75  70  83 S15       29.59F
WARROAD        PTSUNNY   79  72  78 SW9       29.59F
THIEF RVR FALL PTSUNNY   75  66  73 SW17G23   29.63S
CROOKSTON      SUNNY     75  64  69 SW20      29.65R
FOSSTON        PTSUNNY   75  68  78 SW24      29.68S
DETROIT LAKES  MOSUNNY   77  63  61 SW15G28   29.74S
MOORHEAD       MOSUNNY   75  63  64 SW15G25   29.72R
PARK RAPIDS    CLOUDY    78  68  71 SW17G25   29.74S
MAHNOMEN       CLOUDY    75  67  77 SW17G23   29.69S
$$
MNZ006-009>011-018-025>026-281900-
   North Central Minnesota

CITY           SKY/WX    TMP DP  RH WIND       PRES   REMARKS
BAUDETTE       PTSUNNY   77  70  79 SW13G22   29.62F
FLAG ISLAND    CLOUDY    73  70  88 S18       29.59F
INTL FALLS     CLOUDY    73  71  93 SE10G18   29.67F
6HR MIN TEMP:  70; 6HR MAX TEMP:  73; 6HR PCP:  0.08;

WASKISH        PTSUNNY   77  73  88 S6        29.65F
BIG FORK       PTSUNNY   77  68  73 S16G30    29.71S
LONGVILLE      CLOUDY    75  66  73 SW13G20   29.75S
GRAND RAPIDS   CLOUDY    75  66  73 S14G21    29.75S
CRANE LAKE     CLOUDY    72  70  94 SE3       29.74F
ORR            CLOUDY    75  66  73 S13G20    29.69F
COOK           CLOUDY    79  66  65 S14G29    29.74F
WALKER         CLOUDY    76  68  78 SW13G18   29.73R
$$
MNZ012-019>021-037-281900-
   Northeast Minnesota

CITY           SKY/WX    TMP DP  RH WIND       PRES   REMARKS
DULUTH         CLOUDY    79  68  69 SW15G31   29.79S
6HR MIN TEMP:  70; 6HR MAX TEMP:  79; 6HR PCP: TRACE;

ELY            CLOUDY    75  66  73 SE13      29.77F
HIBBING        CLOUDY    79  68  69 S10G25    29.75F
EVELETH        CLOUDY    81  68  65 S16G22    29.77S
DULUTH HARBOR  CLOUDY    82  72  69 SW21G31   29.76S
TWO HARBORS    PTSUNNY   82  72  69 SW14G24   29.77S
SILVER BAY     PTSUNNY   81  68  65 SE6       29.78S
GRAND MARAIS     N/A     71  60  68 NE10      29.83F
G MARAIS ARPRT CLOUDY    70  61  73 SE10      29.88F
$$
MNZ029>031-032-039>041-046>048-054>057-064-281900-
   West Central Minnesota

CITY           SKY/WX    TMP DP  RH WIND       PRES   REMARKS
FERGUS FALLS   SUNNY     77  64  65 W16G24    29.75R
WHEATON        SUNNY     73  61  64 SW15G22   29.79S
MORRIS         CLOUDY    75  70  83 W12       29.79R
ALEXANDRIA     CLOUDY    77  67  71 SW14G24   29.81R
ELBOW LAKE     PTSUNNY   77  68  73 W14G22    29.77S
WADENA         PTSUNNY   79  66  65 SW18G25   29.76R
GLENWOOD       MOSUNNY   79  68  69 SW14      29.81S
APPLETON       CLOUDY    79  68  69 SW9       29.79S
BENSON         CLOUDY    79  68  69 SW7       29.80S
ORTONVILLE     MOSUNNY   75  64  69 W13G21    29.80S
MADISON        PTSUNNY   77  66  69 W9G17     29.81R
WILLMAR        FAIR      79  72  78 SE7       29.83S
$$
MNZ033>034-036-042>043-049>051-058-059-281900-
   Central Minnesota

CITY           SKY/WX    TMP DP  RH WIND       PRES   REMARKS
ST CLOUD       CLOUDY    79  68  69 S16       29.80F
6HR MIN TEMP:  71; 6HR MAX TEMP:  79; 6HR PCP: TRACE;

SAUK CENTRE    CLOUDY    76  69  79 S10G17    29.80F
PAYNESVILLE    MOSUNNY   76  67  71 S9        29.82F
AITKIN         CLOUDY    81  68  65 S16G23    29.76F
PINE RIVER     CLOUDY    75  66  73 S9        29.80S
BRAINERD       CLOUDY    78  67  68 S21       29.78S
STAPLES        CLOUDY    77  66  69 SW13G18   29.78R
LONG PRAIRIE   CLOUDY    75  68  78 S12G17    29.81S
LITTLE FALLS   PTSUNNY   77  64  65 S12       29.80S
LITCHFIELD     MOSUNNY   79  73  83 S6        29.82F
BUFFALO        CLOUDY    78  67  69 S9        29.83F
MAPLE LAKE     CLOUDY    77  70  78 S9        29.83F
$$
MNZ037-044-045-052-053-281900-
   East Central Minnesota

CITY           SKY/WX    TMP DP  RH WIND       PRES   REMARKS
PRINCETON      CLOUDY    81  70  69 S13G18    29.81F
MORA           CLOUDY    79  66  65 SW14      29.82S
CAMBRIDGE      CLOUDY    82  66  57 S14       29.80S
RUSH CITY      CLOUDY    80  70  71 S14G22    29.82S
MOOSE LAKE     PTSUNNY   81  68  65 SW17G23   29.77F
HINCKLEY       MOCLDY    79  72  78 S14G22    29.81S
CLOQUET        CLOUDY    79  66  65 S21G26    29.79S
MCGREGOR       CLOUDY    77  68  73 SW15G25   29.79S
$$
MNZ071>073-080-081-089-090-097-098-281900-
   Southwest Minnesota

CITY           SKY/WX    TMP DP  RH WIND       PRES   REMARKS
MONTEVIDEO     CLOUDY    79  77  94 SW3       29.83S
GRANITE FALLS  CLOUDY    79  70  75 SE6       29.83F
CANBY          PTSUNNY   80  68  67 W14G20    29.83S
MARSHALL       CLOUDY    81  66  61 W15G22    29.85R
REDWOOD FALLS  PTSUNNY   81  72  74 S13       29.81F
OLIVIA         PTSUNNY   75  68  78 S7        29.82F
PIPESTONE      PTSUNNY   75  66  73 W13       29.88R
WINDOM         MOSUNNY   81  70  69 S15       29.85F
WORTHINGTON    CLOUDY    75  68  78 SW15G21   29.87S
JACKSON        MOSUNNY   81  72  74 SW9       29.86F
SLAYTON        CLOUDY    78  71  81 SW13      29.87S
$$
MNZ065>067-074>077-082>085-091>093-281900-
   South Central Minnesota

CITY           SKY/WX    TMP DP  RH WIND       PRES   REMARKS
MANKATO        CLOUDY    79  70  73 S9        29.84F
NEW ULM        PTSUNNY   81  72  74 SW12G17   29.82F
ST JAMES       PTSUNNY   82  73  74 S12       29.84F
FAIRMONT       PTSUNNY   79  66  65 S10       29.85F
GLENCOE        PTSUNNY   79  73  80 S7        29.82F
FARIBAULT      CLOUDY    79  72  78 S12G18    29.85F
OWATONNA       CLOUDY    79  72  78 SE15      29.85S
WASECA         CLOUDY    77  70  78 S8        29.86S
ALBERT LEA     CLOUDY    79  73  83 S12       29.85F
$$
MNZ078>079-086>088-094>096-281900-
   Southeast Minnesota

CITY           SKY/WX    TMP DP  RH WIND       PRES   REMARKS
ROCHESTER      CLOUDY    76  72  87 SE17G25   29.86F
6HR MIN TEMP:  67; 6HR MAX TEMP:  76; 6HR PCP:  1.63;

RED WING       CLOUDY    81  70  69 S7G16     29.82F
STANTON        CLOUDY    79  71  74 S12G24    29.83F
DODGE CENTER   CLOUDY    75  72  88 S13       29.86S
WINONA         CLOUDY    77  70  78 S5        29.87R
AUSTIN         CLOUDY    79  73  83 SE7       29.85F
PRESTON        CLOUDY    74  70  85 S10       29.88F
$$
ABBREVIATIONS USED IN REMARKS
   TC - TEMPERATURES IN CELSIUS
  WCI - WIND CHILL INDEX
   HX - HEAT INDEX
  VSB - VISIBILITY
$$


USA.gov is the U.S. government's official web portal to all federal, state and local government web resources and services.